• In Hungary
  • List of Countries
  • For 7 days
  • Water Temperature
  • Satellite Maps
  • Weather Map
  • News
  • Weather Widgets
  • user-avatar
    Login

    Hourly Weather Chabazimahi

    Today, 24 September, Monday

    Time Temperature Precipitation Wind Pressure Humidity
    00:00 +14°C° 0 mm 2 mps 662 mmHg 75%
    01:00 +13°C° 0 mm 2 mps 662 mmHg 73%
    02:00 +13°C° 0 mm 2 mps 662 mmHg 72%
    03:00 +13°C° 0 mm 2 mps 662 mmHg 69%
    04:00 +13°C° 0 mm 2 mps 662 mmHg 69%
    05:00 +13°C° 0 mm 2 mps 663 mmHg 69%
    06:00 +13°C° 0 mm 2 mps 663 mmHg 69%
    07:00 +15°C° 0 mm 2 mps 664 mmHg 62%
    08:00 +17°C° 0 mm 2 mps 664 mmHg 54%
    09:00 +19°C° 0 mm 2 mps 665 mmHg 47%
    10:00 +20°C° 0 mm 2 mps 665 mmHg 47%
    11:00 +20°C° 0 mm 3 mps 665 mmHg 47%
    12:00 +21°C° 0 mm 3 mps 665 mmHg 48%
    13:00 +21°C° 0 mm 3 mps 665 mmHg 52%
    14:00 +20°C° 0 mm 3 mps 665 mmHg 55%
    15:00 +20°C° 0 mm 3 mps 665 mmHg 58%
    16:00 +18°C° 0 mm 2 mps 664 mmHg 68%
    17:00 +17°C° 0 mm 2 mps 664 mmHg 77%
    18:00 +15°C° 0 mm 1 mps 664 mmHg 86%
    19:00 +15°C° 0 mm 1 mps 664 mmHg 86%
    20:00 +15°C° 0 mm 1 mps 664 mmHg 85%
    21:00 +14°C° 0 mm 1 mps 664 mmHg 85%
    22:00 +14°C° 0 mm 2 mps 663 mmHg 82%
    23:00 +14°C° 0 mm 2 mps 663 mmHg 79%

    Tomorrow, 25 September, Tuesday

    Time Temperature Precipitation Wind Pressure Humidity
    00:00 +14°C° 0 mm 2 mps 663 mmHg 76%
    01:00 +14°C° 0 mm 2 mps 663 mmHg 73%
    02:00 +13°C° 0 mm 3 mps 662 mmHg 70%
    03:00 +13°C° 0 mm 3 mps 662 mmHg 68%
    04:00 +13°C° 0 mm 3 mps 662 mmHg 66%
    05:00 +13°C° 0 mm 3 mps 662 mmHg 65%
    06:00 +13°C° 0 mm 3 mps 661 mmHg 64%
    07:00 +17°C° 0 mm 3 mps 662 mmHg 58%
    08:00 +19°C° 0 mm 3 mps 662 mmHg 51%
    09:00 +22°C° 0 mm 3 mps 662 mmHg 45%
    10:00 +24°C° 0 mm 3 mps 662 mmHg 44%
    11:00 +25°C° 0 mm 4 mps 662 mmHg 44%
    12:00 +26°C° 0 mm 4 mps 662 mmHg 43%
    13:00 +26°C° 0 mm 4 mps 661 mmHg 46%
    14:00 +25°C° 0 mm 3 mps 661 mmHg 48%
    15:00 +25°C° 0 mm 3 mps 661 mmHg 51%
    16:00 +22°C° 0 mm 3 mps 660 mmHg 62%
    17:00 +20°C° 0 mm 2 mps 660 mmHg 72%
    18:00 +19°C° 0 mm 1 mps 660 mmHg 83%
    19:00 +17°C° 0.1 mm 2 mps 660 mmHg 83%
    20:00 +17°C° 0.1 mm 2 mps 660 mmHg 82%
    21:00 +17°C° 0.1 mm 2 mps 661 mmHg 82%
    22:00 +17°C° 0.2 mm 2 mps 661 mmHg 81%
    23:00 +17°C° 0.2 mm 2 mps 661 mmHg 80%

    Day after tomorrow, 26 September, Wednesday

    Time Temperature Precipitation Wind Pressure Humidity
    00:00 +16°C° 0.2 mm 2 mps 661 mmHg 80%
    01:00 +16°C° 0 mm 2 mps 661 mmHg 82%
    02:00 +15°C° 0 mm 2 mps 661 mmHg 84%
    03:00 +15°C° 0 mm 2 mps 661 mmHg 86%
    04:00 +13°C° 0 mm 3 mps 662 mmHg 89%
    05:00 +13°C° 0 mm 4 mps 662 mmHg 91%
    06:00 +13°C° 0 mm 4 mps 662 mmHg 93%
    07:00 +13°C° 0 mm 5 mps 663 mmHg 89%
    08:00 +14°C° 0 mm 5 mps 663 mmHg 85%
    09:00 +15°C° 0 mm 5 mps 664 mmHg 81%
    10:00 +14°C° 0.1 mm 5 mps 664 mmHg 80%
    11:00 +14°C° 0.1 mm 5 mps 664 mmHg 80%
    12:00 +14°C° 0.1 mm 5 mps 664 mmHg 80%
    13:00 +14°C° 0.1 mm 5 mps 664 mmHg 80%
    14:00 +13°C° 0.1 mm 5 mps 664 mmHg 81%
    15:00 +13°C° 0.1 mm 5 mps 664 mmHg 81%
    16:00 +12°C° 0 mm 5 mps 665 mmHg 84%
    17:00 +10°C° 0 mm 5 mps 665 mmHg 86%
    18:00 +10°C° 0 mm 4 mps 665 mmHg 89%
    19:00 +10°C° 0 mm 4 mps 665 mmHg 89%
    20:00 +10°C° 0 mm 4 mps 665 mmHg 89%
    21:00 +9°C° 0 mm 3 mps 666 mmHg 88%
    22:00 +9°C° 0 mm 3 mps 666 mmHg 88%
    23:00 +9°C° 0 mm 3 mps 665 mmHg 88%

    27 September, Thursday

    Time Temperature Precipitation Wind Pressure Humidity
    00:00 +9°C° 0 mm 3 mps 665 mmHg 88%
    01:00 +8°C° 0 mm 3 mps 665 mmHg 89%
    02:00 +8°C° 0 mm 3 mps 665 mmHg 90%
    03:00 +8°C° 0 mm 3 mps 665 mmHg 91%
    04:00 +8°C° 0 mm 3 mps 665 mmHg 91%
    05:00 +8°C° 0 mm 3 mps 666 mmHg 91%
    06:00 +8°C° 0 mm 3 mps 666 mmHg 90%
    07:00 +9°C° 0 mm 3 mps 666 mmHg 84%
    08:00 +11°C° 0 mm 3 mps 667 mmHg 77%
    09:00 +12°C° 0 mm 3 mps 667 mmHg 70%
    10:00 +13°C° 0 mm 3 mps 667 mmHg 68%
    11:00 +14°C° 0 mm 4 mps 667 mmHg 66%
    12:00 +14°C° 0 mm 4 mps 667 mmHg 63%
    13:00 +14°C° 0 mm 4 mps 667 mmHg 64%
    14:00 +14°C° 0 mm 3 mps 667 mmHg 65%
    15:00 +14°C° 0 mm 3 mps 667 mmHg 66%
    16:00 +13°C° 0 mm 2 mps 666 mmHg 73%
    17:00 +12°C° 0 mm 2 mps 666 mmHg 80%
    18:00 +10°C° 0 mm 1 mps 666 mmHg 87%
    19:00 +10°C° 0 mm 1 mps 666 mmHg 87%
    20:00 +10°C° 0 mm 1 mps 666 mmHg 86%
    21:00 +10°C° 0 mm 1 mps 667 mmHg 86%
    22:00 +10°C° 0 mm 1 mps 666 mmHg 84%
    23:00 +10°C° 0 mm 1 mps 666 mmHg 83%

    28 September, Friday

    Time Temperature Precipitation Wind Pressure Humidity
    00:00 +10°C° 0 mm 1 mps 666 mmHg 81%
    01:00 +10°C° 0 mm 1 mps 666 mmHg 80%
    02:00 +10°C° 0 mm 1 mps 666 mmHg 78%
    03:00 +10°C° 0 mm 1 mps 666 mmHg 76%
    04:00 +10°C° 0 mm 1 mps 666 mmHg 75%
    05:00 +10°C° 0 mm 1 mps 666 mmHg 73%
    06:00 +10°C° 0 mm 1 mps 666 mmHg 71%
    07:00 +12°C° 0 mm 2 mps 667 mmHg 66%
    08:00 +14°C° 0 mm 2 mps 667 mmHg 61%
    09:00 +16°C° 0 mm 2 mps 668 mmHg 55%
    10:00 +17°C° 0 mm 3 mps 668 mmHg 54%
    11:00 +18°C° 0 mm 3 mps 668 mmHg 54%
    12:00 +19°C° 0 mm 4 mps 668 mmHg 53%
    13:00 +19°C° 0 mm 4 mps 667 mmHg 55%
    14:00 +19°C° 0 mm 4 mps 667 mmHg 58%
    15:00 +19°C° 0 mm 4 mps 666 mmHg 60%
    16:00 +17°C° 0 mm 4 mps 666 mmHg 69%
    17:00 +14°C° 0 mm 4 mps 665 mmHg 78%
    18:00 +13°C° 0 mm 4 mps 665 mmHg 87%
    19:00 +13°C° 0 mm 4 mps 665 mmHg 83%
    20:00 +12°C° 0 mm 4 mps 665 mmHg 80%
    21:00 +12°C° 0 mm 4 mps 665 mmHg 77%
    22:00 +12°C° 0 mm 4 mps 664 mmHg 73%
    23:00 +12°C° 0 mm 4 mps 664 mmHg 68%

    29 September, Saturday

    Time Temperature Precipitation Wind Pressure Humidity
    00:00 +12°C° 0 mm 4 mps 664 mmHg 64%
    01:00 +12°C° 0 mm 4 mps 663 mmHg 61%
    02:00 +12°C° 0 mm 3 mps 663 mmHg 58%
    03:00 +12°C° 0 mm 3 mps 663 mmHg 56%
    04:00 +12°C° 0 mm 3 mps 663 mmHg 55%
    05:00 +12°C° 0 mm 3 mps 663 mmHg 54%
    06:00 +12°C° 0 mm 3 mps 662 mmHg 52%
    07:00 +16°C° 0 mm 3 mps 663 mmHg 48%
    08:00 +19°C° 0 mm 3 mps 663 mmHg 43%
    09:00 +21°C° 0 mm 2 mps 664 mmHg 38%
    10:00 +22°C° 0 mm 3 mps 664 mmHg 39%
    11:00 +24°C° 0 mm 3 mps 663 mmHg 40%
    12:00 +25°C° 0 mm 3 mps 663 mmHg 40%
    13:00 +25°C° 0 mm 3 mps 663 mmHg 43%
    14:00 +24°C° 0 mm 3 mps 662 mmHg 47%
    15:00 +24°C° 0 mm 3 mps 662 mmHg 50%
    16:00 +21°C° 0 mm 3 mps 662 mmHg 59%
    17:00 +19°C° 0 mm 3 mps 661 mmHg 68%
    18:00 +17°C° 0 mm 2 mps 661 mmHg 76%
    19:00 +17°C° 0 mm 2 mps 661 mmHg 72%
    20:00 +17°C° 0 mm 3 mps 661 mmHg 68%
    21:00 +16°C° 0 mm 3 mps 661 mmHg 63%
    22:00 +16°C° 0 mm 3 mps 661 mmHg 57%
    23:00 +16°C° 0 mm 3 mps 661 mmHg 51%
    Show more